Terminal Aerodrome Forecast
Issued by NWS State College, PA

Home | Current Version | Previous Version | Text Only | Print | Product List | Glossary On
Versions: 1 2 3 4 5 6 7 8 9 10 11 12 13 14 15 16 17 18 19 20 21 22 23 24 25 26 27 28 29 30 31 32 33 34 35 36 37 38 39 40 41 42 43 44 45 46 47 48 49 50
000
FTUS41 KCTP 191747
TAFIPT
TAF
KIPT 191747Z 1918/2018 08005KT P6SM SCT045
     FM200400 12006KT P6SM BKN025 BKN050
     FM200600 14007KT 5SM -DZ BR OVC006 WS016/17034KT
     FM201600 11004KT P6SM BKN050 OVC100=

USA.gov is the U.S. government's official web portal to all federal, state and local government web resources and services.